Bowling Green, Kentucky, United States (42101)
Lat: 36.99N, Lon: 86.44W
Wx Zone: KYZ071
Local Info
Past Weather Observations for Thursday, August 14, 2014

NOTE: This archive is for the closest National Weather Service station to Bowling Green. Information may differ from the station used for current weather conditions.

Click here for Long-term Archive

Time Weather Temperature Dewpoint Humidity Pressure Winds Precip Visibility
23:55
Clear
63°F / 17°C 63°F / 17°C 100% 30.04 in
(1017 mb)
Calm - 7SM
23:35
Clear
64°F / 18°C 64°F / 18°C 100% 30.04 in
(1017 mb)
Calm - 10SM
23:15
Clear
64°F / 18°C 64°F / 18°C 100% 30.04 in
(1017 mb)
Calm - 10SM
22:55
Clear
63°F / 17°C 63°F / 17°C 100% 30.04 in
(1017 mb)
Calm - 10SM
22:35
Clear
64°F / 18°C 64°F / 18°C 100% 30.04 in
(1017 mb)
Calm - 10SM
22:15
Clear
64°F / 18°C 64°F / 18°C 100% 30.04 in
(1017 mb)
Calm - 10SM
21:55
Clear
64°F / 18°C 64°F / 18°C 100% 30.04 in
(1017 mb)
Calm - 10SM
21:35
Clear
66°F / 19°C 63°F / 17°C 88% 30.04 in
(1017 mb)
Calm - 10SM
21:15
Clear
66°F / 19°C 63°F / 17°C 88% 30.04 in
(1017 mb)
Calm - 10SM
20:55
Clear
66°F / 19°C 64°F / 18°C 94% 30.04 in
(1017 mb)
Calm - 10SM
20:35
Clear
66°F / 19°C 63°F / 17°C 88% 30.04 in
(1017 mb)
Calm - 10SM
20:15
Clear
68°F / 20°C 63°F / 17°C 83% 30.04 in
(1017 mb)
Calm - 10SM
19:55
Clear
68°F / 20°C 63°F / 17°C 83% 30.04 in
(1017 mb)
Calm - 10SM
19:35
Clear
68°F / 20°C 63°F / 17°C 83% 30.01 in
(1016 mb)
Calm - 10SM
19:15
Clear
70°F / 21°C 63°F / 17°C 78% 30.01 in
(1016 mb)
Calm - 10SM
18:55
Clear
73°F / 23°C 61°F / 16°C 65% 30.01 in
(1016 mb)
Calm - 10SM
18:35
Clear
75°F / 24°C 61°F / 16°C 61% 30.01 in
(1016 mb)
Calm - 10SM
18:15
Clear
77°F / 25°C 61°F / 16°C 57% 30.01 in
(1016 mb)
Calm - 10SM
17:55
Clear
79°F / 26°C 61°F / 16°C 54% 30.01 in
(1016 mb)
Calm - 10SM
17:35
Clear
79°F / 26°C 59°F / 15°C 51% 30.01 in
(1016 mb)
Calm - 10SM
17:15
Clear
81°F / 27°C 59°F / 15°C 48% 30.01 in
(1016 mb)
SSW 4.6 mph
(SSW 7 kph)
- 10SM
16:55
Clear
81°F / 27°C 59°F / 15°C 48% 30.01 in
(1016 mb)
Calm - 10SM
16:35
Clear
82°F / 28°C 57°F / 14°C 42% 30.01 in
(1016 mb)
SW 3.5 mph
(SW 6 kph)
- 10SM
16:15
Clear
82°F / 28°C 57°F / 14°C 42% 30.01 in
(1016 mb)
Calm - 10SM
15:55
Clear
82°F / 28°C 59°F / 15°C 45% 30.04 in
(1017 mb)
SSW 4.6 mph
(SSW 7 kph)
- 10SM
15:35
Clear
82°F / 28°C 59°F / 15°C 45% 30.04 in
(1017 mb)
SSW 4.6 mph
(SSW 7 kph)
- 10SM
15:15
Partly Cloudy
82°F / 28°C 59°F / 15°C 45% 30.04 in
(1017 mb)
SSW 5.8 mph
(SSW 9 kph)
- 10SM
14:55
Partly Cloudy
82°F / 28°C 59°F / 15°C 45% 30.04 in
(1017 mb)
SSW 6.9 mph
(SSW 11 kph)
- 10SM
14:35
Partly Cloudy
82°F / 28°C 59°F / 15°C 45% 30.04 in
(1017 mb)
Calm - 10SM
14:15
Partly Cloudy
81°F / 27°C 57°F / 14°C 45% 30.04 in
(1017 mb)
SW 3.5 mph
(SW 6 kph)
- 10SM
13:55
Clear
82°F / 28°C 57°F / 14°C 42% 30.04 in
(1017 mb)
SW 3.5 mph
(SW 6 kph)
- 10SM
13:35
Clear
81°F / 27°C 59°F / 15°C 48% 30.04 in
(1017 mb)
Calm - 10SM
13:15
Partly Cloudy
81°F / 27°C 59°F / 15°C 48% 30.04 in
(1017 mb)
Calm - 10SM
12:55
Clear
81°F / 27°C 57°F / 14°C 45% 30.06 in
(1018 mb)
Calm - 10SM
12:35
Clear
81°F / 27°C 57°F / 14°C 45% 30.06 in
(1018 mb)
Calm - 10SM
12:15
Clear
81°F / 27°C 57°F / 14°C 45% 30.06 in
(1018 mb)
SW 4.6 mph
(SW 7 kph)
- 10SM
11:55
Clear
81°F / 27°C 59°F / 15°C 48% 30.06 in
(1018 mb)
SW 5.8 mph
(SW 9 kph)
- 10SM
11:35
Clear
79°F / 26°C 57°F / 14°C 48% 30.06 in
(1018 mb)
W 3.5 mph
(W 6 kph)
- 10SM
11:15
Clear
79°F / 26°C 57°F / 14°C 48% 30.09 in
(1019 mb)
Calm - 10SM
10:55
Clear
77°F / 25°C 57°F / 14°C 51% 30.09 in
(1019 mb)
Calm - 10SM
10:35
Clear
77°F / 25°C 57°F / 14°C 51% 30.09 in
(1019 mb)
SSW 5.8 mph
(SSW 9 kph)
- 10SM
10:15
Clear
77°F / 25°C 57°F / 14°C 51% 30.09 in
(1019 mb)
Calm - 10SM
09:55
Clear
77°F / 25°C 55°F / 13°C 47% 30.09 in
(1019 mb)
Calm - 10SM
09:35
Clear
75°F / 24°C 59°F / 15°C 57% 30.12 in
(1020 mb)
WNW 4.6 mph
(WNW 7 kph)
- 10SM
09:15
Clear
75°F / 24°C 61°F / 16°C 61% 30.12 in
(1020 mb)
Calm - 10SM
08:55
Clear
73°F / 23°C 61°F / 16°C 65% 30.12 in
(1020 mb)
Calm - 10SM
08:35
Clear
73°F / 23°C 61°F / 16°C 65% 30.12 in
(1020 mb)
Calm - 10SM
08:15
Clear
72°F / 22°C 61°F / 16°C 69% 30.12 in
(1020 mb)
SSW 3.5 mph
(SSW 6 kph)
- 10SM
07:55
Clear
70°F / 21°C 61°F / 16°C 73% 30.12 in
(1020 mb)
Calm - 10SM
07:35
Clear
66°F / 19°C 63°F / 17°C 88% 30.12 in
(1020 mb)
Calm - 10SM
07:15
Clear
64°F / 18°C 63°F / 17°C 94% 30.12 in
(1020 mb)
Calm - 10SM
06:55
Clear
63°F / 17°C 63°F / 17°C 100% 30.12 in
(1020 mb)
Calm - 10SM
06:35
Clear
61°F / 16°C 61°F / 16°C 100% 30.12 in
(1020 mb)
Calm - 7SM
06:15
Clear
59°F / 15°C 59°F / 15°C 100% 30.12 in
(1020 mb)
Calm - 7SM
05:55
Clear
Fog And Mist
57°F / 14°C 57°F / 14°C 100% 30.09 in
(1019 mb)
Calm - 4SM
05:35
Clear
Fog And Mist
57°F / 14°C 57°F / 14°C 100% 30.09 in
(1019 mb)
Calm - 3SM
05:15
Obscured
Fog And Mist
57°F / 14°C 57°F / 14°C 100% 30.09 in
(1019 mb)
Calm - 1SM
04:55
Clear
Fog And Mist
57°F / 14°C 57°F / 14°C 100% 30.09 in
(1019 mb)
Calm - 3SM
04:35
Clear
Fog And Mist
57°F / 14°C 57°F / 14°C 100% 30.09 in
(1019 mb)
Calm - 4SM
04:15
Mostly Cloudy
Fog And Mist
57°F / 14°C 57°F / 14°C 100% 30.09 in
(1019 mb)
Calm - 1SM
03:55
Mostly Cloudy
Fog And Mist
57°F / 14°C 57°F / 14°C 100% 30.06 in
(1018 mb)
Calm - 1SM
03:35
Obscured
Fog And Mist
57°F / 14°C 57°F / 14°C 100% 30.06 in
(1018 mb)
Calm - 1 1/2SM
03:15
Clear
Fog And Mist
57°F / 14°C 57°F / 14°C 100% 30.06 in
(1018 mb)
Calm - 4SM
02:55
Clear
Fog And Mist
57°F / 14°C 57°F / 14°C 100% 30.06 in
(1018 mb)
Calm - 3SM
02:35
Clear
Fog And Mist
57°F / 14°C 57°F / 14°C 100% 30.06 in
(1018 mb)
Calm - 5SM
02:15
Clear
Fog And Mist
57°F / 14°C 57°F / 14°C 100% 30.06 in
(1018 mb)
Calm - 4SM
01:55
Clear
Fog And Mist
59°F / 15°C 59°F / 15°C 100% 30.06 in
(1018 mb)
Calm - 5SM
01:35
Clear
Fog And Mist
59°F / 15°C 59°F / 15°C 100% 30.06 in
(1018 mb)
Calm - 3SM
01:15
Clear
Fog And Mist
59°F / 15°C 59°F / 15°C 100% 30.06 in
(1018 mb)
Calm - 5SM
00:55
Clear
59°F / 15°C 59°F / 15°C 100% 30.06 in
(1018 mb)
Calm - 7SM
00:35
Clear
Fog And Mist
59°F / 15°C 59°F / 15°C 100% 30.06 in
(1018 mb)
Calm - 5SM
00:15
Clear
59°F / 15°C 59°F / 15°C 100% 30.06 in
(1018 mb)
Calm - 7SM
Time Weather Temperature Dewpoint Humidity Pressure Winds Precip Visibility


Weather for websites

WeatherForYou.com, LLC is not responsible for any damages or problems caused by this service. Current weather conditions are obtained from the closest station including government and personal stations which may have varying degrees of accuracy. Weather forecasts are derived from the NOAA NDFD. Like all things, this site belongs to Jesus Christ... He just trusts me to maintain it. If you have any questions or comments email webmaster@weatherforyou.com

Copyright © 2014, WeatherForYou.com LLC. All rights reserved.